Simultaneous Nadir Overpasses (SNOs) Predictions

Prediction of SNOs near equator between AQUA and NPP Satellite Orbit:

Table of predicted SNOs near equator for the next 14.0 days since TLE Epoch: 4/2/2022
Index Date (AQUA) Time (AQUA) AQUA Lat,Lon Date (NPP) Time (NPP) NPP Lat,Lon Distance(km) Time Diff (sec)
1 04/04/2022 07:00:28 -3.39, -81.28 04/04/2022 06:51:15 -3.25, -82.00 82.37 553
2 04/06/2022 22:28:00 5.70,-133.48 04/06/2022 22:18:08 5.56,-134.08 67.92 592
3 04/06/2022 23:16:07 -1.19, 35.14 04/06/2022 23:07:31 -0.99, 34.28 98.69 516
4 04/09/2022 14:43:37 3.43, -17.04 04/09/2022 14:34:23 3.24, -17.78 84.59 554
5 04/12/2022 06:10:56 -5.60, -69.18 04/12/2022 06:01:06 -5.48, -69.81 70.89 590
6 04/14/2022 22:26:30 -3.30, 47.27 04/14/2022 22:17:19 -3.13, 46.50 88.13 551
